Weather History for KRWI - May, 2013

Change the Weather History Date:

Wednesday, May 8, 2013

  Actual Average Record
Temperature  
Mean Temperature 62 °F -  
Max Temperature 75 °F 78 °F 92 °F (1955)
Min Temperature 48 °F 53 °F 37 °F (1968)
Degree Days  
Heating Degree Days 4    
Growing Degree Days 12 (Base 50)    
Moisture  
Dew Point 54 °F    
Average Humidity 76    
Maximum Humidity 93    
Minimum Humidity 46    
Precipitation  
Precipitation 0.12 in - - ()
Sea Level Pressure  
Sea Level Pressure 29.97 in    
Wind  
Wind Speed 2 mph (WSW)    
Max Wind Speed 12 mph    
Max Gust Speed 18 mph    
Visibility 9 miles    
Events Rain , Thunderstorm    
Averages and records for this station are not official NWS values.
T = Trace of Precipitation, MM = Missing Value Source: NWS Daily Summary

Daily Weather History Graph

Daily Weather History Graph

Search for Another Location

Airport or City:

Trip Planner

Search our weather history database for the weather conditions in past years. The results will help you decide how hot, cold, wet, or windy it might be!

Date:

Astronomy

May. 08, 2013 Rise Set
Actual Time 6:11 AM EDT 8:04 PM EDT
Civil Twilight 5:44 AM EDT 8:32 PM EDT
Nautical Twilight 5:10 AM EDT 9:06 PM EDT
Astronomical Twilight 4:34 AM EDT 9:42 PM EDT
Moon 5:16 AM EDT (5/8) 7:02 PM EDT (5/8)
Length of Visible Light 14h 48m
Length of Day
13h 52m
Waning Crescent, 2% of the Moon is Illuminated
May 8
Waning Crescent
May 9
New
May 18
First Quarter
May 25
Full
May 31
Last Quarter

Hourly Weather History & Observations

Time (EDT) Temp. Dew Point Humidity Pressure Visibility Wind Dir Wind Speed Gust Speed Precip Events Conditions
12:53 AM 51.1 °F 48.9 °F 92% 29.96 in 10.0 mi Calm Calm - N/A   Clear
1:53 AM 50.0 °F 48.0 °F 93% 29.95 in 10.0 mi Calm Calm - N/A   Clear
2:53 AM 48.9 °F 46.9 °F 93% 29.94 in 8.0 mi Calm Calm - N/A   Clear
3:53 AM 48.9 °F 46.9 °F 93% 29.94 in 7.0 mi Calm Calm - N/A   Clear
4:53 AM 50.0 °F 48.0 °F 93% 29.94 in 7.0 mi Calm Calm - N/A   Clear
5:53 AM 52.0 °F 50.0 °F 93% 29.96 in 7.0 mi Calm Calm - N/A   Partly Cloudy
6:53 AM 52.0 °F 50.0 °F 93% 29.98 in 4.0 mi Calm Calm - N/A   Mostly Cloudy
7:53 AM 55.0 °F 53.1 °F 93% 30.00 in 4.0 mi Calm Calm - 0.03 in Rain Light Rain
8:53 AM 59.0 °F 55.9 °F 90% 30.00 in 7.0 mi Calm Calm - 0.01 in   Scattered Clouds
9:01 AM 60.8 °F 57.2 °F 88% 30.00 in 7.0 mi Calm Calm - N/A   Mostly Cloudy
9:53 AM 63.0 °F 55.0 °F 75% 30.01 in 10.0 mi Calm Calm - N/A   Overcast
10:53 AM 64.9 °F 55.9 °F 73% 30.02 in 10.0 mi Calm Calm - N/A   Overcast
11:53 AM 66.9 °F 55.0 °F 66% 30.01 in 10.0 mi Variable 3.5 mph - N/A   Overcast
12:53 PM 72.0 °F 55.9 °F 57% 29.99 in 10.0 mi SSW 9.2 mph 18.4 mph N/A   Scattered Clouds
1:53 PM 72.0 °F 54.0 °F 53% 29.97 in 10.0 mi SSW 11.5 mph - N/A   Mostly Cloudy
2:53 PM 73.9 °F 52.0 °F 46% 29.96 in 10.0 mi SW 11.5 mph - N/A   Mostly Cloudy
3:53 PM 75.0 °F 53.1 °F 46% 29.94 in 10.0 mi SSW 10.4 mph - N/A   Overcast
4:53 PM 73.9 °F 53.1 °F 48% 29.94 in 10.0 mi WSW 6.9 mph - N/A   Scattered Clouds
5:53 PM 73.0 °F 54.0 °F 51% 29.94 in 10.0 mi WNW 6.9 mph - N/A   Scattered Clouds
6:53 PM 70.0 °F 55.0 °F 59% 29.94 in 10.0 mi Calm Calm - N/A   Overcast
7:53 PM 66.9 °F 55.0 °F 66% 29.95 in 10.0 mi SSW 4.6 mph - N/A   Overcast
8:53 PM 64.0 °F 57.0 °F 78% 29.96 in 10.0 mi Calm Calm - N/A   Overcast
9:53 PM 63.0 °F 57.0 °F 81% 29.97 in 10.0 mi Calm Calm - 0.00 in   Overcast
10:03 PM 64.4 °F 57.2 °F 77% 30.00 in 10.0 mi WNW 9.2 mph - 0.00 in Rain , Thunderstorm Light Thunderstorms and Rain
10:25 PM 62.6 °F 57.2 °F 82% 30.00 in 6.0 mi WSW 6.9 mph - 0.07 in Rain Light Rain
10:53 PM 61.0 °F 57.0 °F 87% 30.01 in 10.0 mi WSW 5.8 mph - 0.08 in   Mostly Cloudy
11:53 PM 60.1 °F 57.0 °F 90% 30.00 in 10.0 mi West 3.5 mph - N/A   Clear